sat.trackr.live / text

‹ back to catalog

STARLINK-36700

NORAD 67662 · 2026-022Q

PAYLOAD ACTIVE UNKNOWN

§ Identity

Operator
Country
US
Launch date
2026-02-02
Launch site
AFWTR
Launch vehicle
Mass (kg)
RCS (m²)

Purposes: comms

External: N2YO · Heavens-Above · Gunter

§ Orbital elements

Epoch: 2026-09-19T15:55:56.156160Z

Period
93.90 min
Inclination
97.2858°
Eccentricity
0.0000175
Mean motion
15.33471345 rev/d
Perigee alt
465.3 km
Apogee alt
465.6 km
Semi-major
6,843.6 km
B*
6.7492e-4
RAAN
294.3112°
Arg perigee
125.3123°
Mean anomaly
234.8137°
Rev number
3,530

§ Raw data

STARLINK-367001 67662U 26022Q   26262.66384440  .00021795  00000+0  67492-3 0  99962 67662  97.2858 294.3112 0000175 125.3123 234.8137 15.33471345 35305

JSON: /api/v1/satellites/67662 · /tle

For live sub-satellite position, see the globe view (requires WebGL).

§ Visibility from observer

Set your observer location to see the next 7 days of passes ≥ 10°. The values pass through the URL so the page stays shareable.

No JS? Fill the form by hand. The geolocation button needs JavaScript.